Zurück zum Katalog

USA 426

AktivMilitärVLEO
NORAD 61649·PAYLOAD·🇺🇸 United States

Gestartet Oct 24, 2024 von Vandenberg Space Force Base

Loading…

Nächste Überflüge (nächste 24 Stunden)

TLE

VeraltetSource: Mike McCants

Epoche: Aug 11, 2026, 20:38 UTC

1 61649U 24192F   26223.86028207 0.00000000  00000-0  00000-0 0    05
2 61649  70.0214 127.1583 0003000 109.4696 250.5304 14.96713330    03

Verfolge USA 426 in Echtzeit mit AllMySat

Download on the App Store